Location: Gollag?dem
(17.0207°N, 80.7261°E)
Time: 17:14:36
(UTC+00:00)

Cosmos 2218 Rocket - Pass Details

Date: 03 August 2024
Orbit: 956 x 1005 km, 82.9° (Epoch: 12 September)

Event Time Altitude Azimuth Distance (km) Brightness Sun altitude
Rises 13:54:53 0° 175° (S) 3,623 6.7 -11.2°
Reaches altitude 10° 13:57:24 10° 171° (S) 2,681 6.0 -11.7°
Maximum altitude 14:03:26 61° 92° (E) 1,080 4.0 -13.1°
Drops below altitude 10° 14:09:31 10° 13° (NNE) 2,709 6.5 -14.4°
Sets 14:12:03 0° 10° (N) 3,664 7.2 -15.0°
